Location: Burbank
(38.7788°N, 114.0429°W)
Time: 02:12:34
(UTC+00:00)

Injun/Solrad 3 - Visible Passes

Search period start: 12 May 2026 00:00
Search period end: 22 May 2026 00:00
Orbit: 868 x 988 km, 66.8° (Epoch: 11 May)

Date Brightness Start Highest point End Pass type
(mag) Time Alt. Az. Time Alt. Az. Time Alt. Az.
12 May 10.5 06:47:30 10° N 06:50:17 13° NE 06:53:05 10° ENE visible
12 May 8.4 08:31:49 10° NNW 08:38:10 59° ENE 08:39:22 51° E visible
12 May 9.3 10:19:19 10° NW 10:22:55 22° W 10:22:55 22° W visible
13 May 10.2 06:57:35 10° N 07:01:50 18° NE 07:05:43 11° E visible
13 May 7.9 08:42:46 10° NNW 08:49:16 87° ENE 08:49:18 87° E visible
13 May 9.9 10:31:41 10° WNW 10:32:52 12° W 10:32:52 12° W visible
14 May 9.7 07:08:03 10° N 07:13:16 25° NE 07:15:48 20° E visible
14 May 8.2 08:53:53 10° NW 08:59:22 57° WNW 08:59:22 57° WNW visible
15 May 9.1 07:18:43 10° NNW 07:24:36 36° NE 07:25:57 33° ENE visible
15 May 8.8 09:05:10 10° NW 09:09:33 35° WNW 09:09:33 35° WNW visible
16 May 10.4 05:45:40 10° NNE 05:47:45 11° NE 05:49:49 10° NE visible
16 May 8.5 07:29:31 10° NNW 07:35:48 52° ENE 07:36:14 51° ENE visible
16 May 9.5 09:16:43 10° NW 09:19:49 22° WNW 09:19:49 22° WNW visible
17 May 10.2 05:55:29 10° N 05:59:21 16° NE 06:02:58 11° ENE visible
17 May 8.1 07:40:27 10° NNW 07:46:34 74° NNE 07:46:34 74° NNE visible
17 May 10.0 09:28:47 10° WNW 09:30:10 14° WNW 09:30:10 14° WNW visible
18 May 9.7 06:05:52 10° N 06:10:49 23° NE 06:13:21 18° ENE visible
18 May 8.2 07:51:30 10° NNW 07:56:57 62° WNW 07:56:57 62° WNW visible
19 May 9.2 06:16:29 10° NNW 06:22:10 32° NE 06:23:48 28° ENE visible
19 May 8.8 08:02:44 10° NW 08:07:24 41° WNW 08:07:24 41° WNW visible
20 May 10.4 04:44:19 10° NNE 04:45:12 10° NNE 04:46:04 10° NE visible
20 May 8.6 06:27:14 10° NNW 06:33:25 46° NE 06:34:17 43° ENE visible
20 May 9.3 08:14:10 10° NW 08:17:54 27° W 08:17:54 27° W visible
21 May 10.2 04:53:26 10° N 04:56:50 15° NE 05:00:14 10° ENE visible
21 May 8.1 06:38:08 10° NNW 06:44:34 68° ENE 06:44:50 67° ENE visible
21 May 9.8 08:26:01 10° WNW 08:28:27 17° W 08:28:27 17° W visible
